EI4HQ Weather Reports


time (UTC)temp
C
wind
direction
speed
KPH
gust
KPH
rain 1hr
cm
rain 24hr
cm
rain mn
cm
humidity
%
barometer
mb
20260506072703 10 336 4.8 9.7 0.00 0.00 0.00 83 1015.2
20260506071803 10 339 4.8 9.7 0.00 0.00 0.00 84 1015.2
20260506070903 9 331 3.2 8.0 0.00 0.00 0.00 84 1015.2
20260506061803 8 331 6.4 8.0 0.00 0.00 0.00 85 1015.0
20260506060903 8 338 4.8 8.0 0.00 0.00 0.00 85 1015.0
20260506050903 8 336 6.4 8.0 0.00 0.00 0.00 84 1014.9
20260506044503 8 347 6.4 9.7 0.00 0.00 0.00 83 1015.0
20260506043603 8 346 6.4 9.7 0.00 0.00 0.00 83 1015.0
20260506042718 8 346 4.8 8.0 0.00 0.00 0.00 83 1015.0
20260506041803 8 344 6.4 8.0 0.00 0.00 0.00 83 1015.0
20260506040903 8 335 6.4 8.0 0.00 0.00 0.00 83 1015.0
20260506040003 9 338 4.8 8.0 0.00 0.00 0.00 83 1015.1
20260506035403 9 344 4.8 6.4 0.00 0.00 0.00 83 1015.1
20260506034503 9 348 3.2 6.4 0.00 0.00 0.00 83 1015.2
20260506033603 9 348 3.2 6.4 0.00 0.00 0.00 83 1015.1
20260506032703 9 349 1.6 4.8 0.00 0.00 0.00 83 1015.2
20260506031803 9 350 3.2 6.4 0.00 0.00 0.00 83 1015.3
20260506030903 9 343 3.2 6.4 0.00 0.00 0.00 83 1015.3
20260506030003 9 343 4.8 6.4 0.00 0.00 0.00 83 1015.3
20260506025403 9 338 4.8 8.0 0.00 0.00 0.00 83 1015.4
20260506024503 9 320 4.8 6.4 0.00 0.00 0.00 83 1015.4
20260506023603 9 334 6.4 8.0 0.00 0.00 0.00 83 1015.4
20260506022703 9 339 6.4 9.7 0.00 0.00 0.00 83 1015.4
20260506021803 9 340 8.0 9.7 0.00 0.00 0.00 83 1015.5
20260506020903 9 335 6.4 9.7 0.00 0.00 0.00 83 1015.5
20260506020003 9 341 6.4 9.7 0.00 0.00 0.00 83 1015.5
20260506015403 9 339 6.4 9.7 0.00 0.00 0.00 83 1015.6
20260506014503 9 338 8.0 11.3 0.00 0.00 0.00 83 1015.7
20260506013603 9 338 9.7 11.3 0.00 0.00 0.00 83 1015.8
20260506012703 9 337 9.7 12.9 0.00 0.00 0.00 82 1015.9
20260506011803 9 339 8.0 12.9 0.00 0.00 0.00 82 1015.9
20260506010903 9 343 8.0 11.3 0.00 0.00 0.00 82 1015.9
20260506010003 9 338 8.0 12.9 0.00 0.00 0.00 82 1015.9
20260506005403 10 339 9.7 12.9 0.00 0.00 0.00 82 1015.9
20260506004503 10 338 9.7 14.5 0.00 0.00 0.00 82 1016.0
20260506003603 10 334 8.0 12.9 0.00 0.00 0.00 82 1016.1
20260506002703 10 335 8.0 12.9 0.00 0.00 0.00 81 1016.0
20260506001803 10 335 8.0 14.5 0.00 0.00 0.00 81 1016.0
20260506000903 10 337 8.0 12.9 0.00 0.00 0.00 81 1016.1
20260506000003 10 336 8.0 12.9 0.00 0.00 0.00 81 1016.1
20260505235403 10 336 9.7 14.5 0.00 0.00 0.00 81 1016.1
20260505234503 10 337 11.3 14.5 0.00 0.00 0.00 81 1016.1
20260505233603 10 336 9.7 14.5 0.00 0.00 0.00 81 1016.1
20260505232703 10 337 9.7 14.5 0.00 0.00 0.00 81 1016.2
20260505231803 10 335 8.0 11.3 0.00 0.00 0.00 81 1016.2
20260505230903 10 336 8.0 11.3 0.00 0.00 0.00 80 1016.3
20260505230003 10 335 6.4 9.7 0.00 0.00 0.00 80 1016.3
20260505225403 10 335 8.0 11.3 0.00 0.00 0.00 80 1016.3
20260505224503 10 337 6.4 9.7 0.00 0.00 0.00 79 1016.3
20260505223603 10 334 6.4 11.3 0.00 0.00 0.00 79 1016.4
20260505222703 10 336 8.0 11.3 0.00 0.00 0.00 79 1016.4
20260505221803 10 336 6.4 9.7 0.00 0.00 0.00 78 1016.5
20260505220903 10 335 4.8 9.7 0.00 0.00 0.00 78 1016.5
20260505220003 10 336 6.4 11.3 0.00 0.00 0.00 78 1016.5
20260505215403 10 336 8.0 11.3 0.00 0.00 0.00 78 1016.6
20260505214503 10 337 8.0 12.9 0.00 0.00 0.00 77 1016.6
20260505213603 10 335 8.0 12.9 0.00 0.00 0.00 77 1016.6
20260505212703 10 336 8.0 12.9 0.00 0.00 0.00 77 1016.7
20260505211803 11 334 8.0 12.9 0.00 0.00 0.00 76 1016.6
20260505210903 11 336 6.4 11.3 0.00 0.00 0.00 75 1016.6
20260505210003 11 338 6.4 12.9 0.00 0.00 0.00 74 1016.5
20260505205403 11 337 6.4 12.9 0.00 0.00 0.00 74 1016.5
20260505204503 11 335 6.4 11.3 0.00 0.00 0.00 73 1016.5
20260505203603 11 340 6.4 12.9 0.00 0.00 0.00 72 1016.4
20260505202703 11 350 6.4 11.3 0.00 0.00 0.00 72 1016.4
20260505201803 11 347 4.8 11.3 0.00 0.00 0.00 71 1016.5
20260505200903 11 342 6.4 12.9 0.00 0.00 0.00 71 1016.4
20260505200003 11 343 6.4 14.5 0.00 0.00 0.00 70 1016.5
20260505195403 11 346 6.4 12.9 0.00 0.00 0.00 70 1016.5
20260505194503 11 344 8.0 12.9 0.00 0.00 0.00 69 1016.4
20260505193603 12 347 8.0 16.1 0.00 0.00 0.00 69 1016.3
20260505192703 12 348 8.0 16.1 0.00 0.00 0.00 68 1016.3
20260505191803 12 350 9.7 17.7 0.00 0.00 0.00 67 1016.2
20260505190903 12 347 9.7 16.1 0.00 0.00 0.00 67 1016.1
20260505190003 12 344 8.0 17.7 0.00 0.00 0.00 66 1016.1
20260505185403 12 348 6.4 12.9 0.00 0.00 0.00 66 1016.0
20260505184503 12 344 8.0 14.5 0.00 0.00 0.00 66 1016.1
20260505183603 12 346 8.0 14.5 0.00 0.00 0.00 66 1016.3
20260505182703 12 344 8.0 14.5 0.00 0.00 0.00 66 1016.1
20260505181803 12 346 8.0 16.1 0.00 0.00 0.00 65 1016.1
20260505180903 12 339 8.0 16.1 0.00 0.00 0.00 64 1016.1
20260505180003 13 345 8.0 12.9 0.00 0.00 0.00 63 1016.1
20260505175403 13 341 9.7 12.9 0.00 0.00 0.00 63 1016.1
20260505174503 13 343 8.0 12.9 0.00 0.00 0.00 62 1016.2
20260505173603 13 339 4.8 12.9 0.00 0.00 0.00 63 1016.3
20260505172703 13 342 6.4 11.3 0.00 0.00 0.00 63 1016.3
20260505171803 13 348 6.4 14.5 0.00 0.00 0.00 63 1016.3
20260505170903 13 343 6.4 16.1 0.00 0.00 0.00 64 1016.4
20260505170003 12 342 6.4 14.5 0.00 0.00 0.00 65 1016.4
20260505165403 12 340 9.7 19.3 0.00 0.00 0.00 63 1016.4
20260505164503 12 346 8.0 14.5 0.00 0.00 0.00 62 1016.4
20260505163603 13 343 9.7 16.1 0.00 0.00 0.00 62 1016.4
20260505162703 13 343 8.0 17.7 0.00 0.00 0.00 61 1016.5
20260505161803 13 340 3.2 16.1 0.00 0.00 0.00 61 1016.4
20260505160903 13 336 8.0 16.1 0.00 0.00 0.00 59 1016.5
20260505152703 13 336 4.8 14.5 0.00 0.00 0.00 59 1016.6
20260505151803 13 332 6.4 14.5 0.00 0.00 0.00 59 1016.7
20260505150903 13 344 8.0 14.5 0.00 0.00 0.00 58 1016.7
20260505124503 13 345 8.0 16.1 0.00 0.00 0.00 63 1017.0
20260505123603 13 341 11.3 20.9 0.00 0.00 0.00 61 1017.0
20260505122703 13 356 6.4 14.5 0.00 0.00 0.00 61 1017.0
20260505121803 13 348 4.8 14.5 0.00 0.00 0.00 61 1017.0
20260505120903 13 351 4.8 11.3 0.00 0.00 0.00 60 1017.0
20260505120003 13 352 6.4 14.5 0.00 0.00 0.00 61 1017.1
20260505115403 13 348 8.0 16.1 0.00 0.00 0.00 60 1017.1
20260505114503 13 343 8.0 16.1 0.00 0.00 0.00 62 1017.0
20260505113603 13 342 11.3 20.9 0.00 0.00 0.00 63 1017.0
20260505112703 13 342 12.9 20.9 0.00 0.00 0.00 62 1017.0
20260505111803 13 337 9.7 14.5 0.00 0.00 0.00 62 1017.0
20260505110903 13 335 9.7 17.7 0.00 0.00 0.00 64 1017.1
20260505101803 12 342 9.7 16.1 0.00 0.00 0.00 67 1017.4
20260505100903 12 344 8.0 16.1 0.00 0.00 0.00 66 1017.5
20260505100003 13 324 1.6 9.7 0.00 0.00 0.00 67 1017.4
20260505095403 13 343 3.2 14.5 0.00 0.00 0.00 67 1017.4
20260505094503 12 334 6.4 14.5 0.00 0.00 0.00 68 1017.4
20260505093603 12 334 4.8 14.5 0.00 0.00 0.00 67 1017.4
20260505092703 12 336 3.2 11.3 0.00 0.00 0.00 67 1017.5
20260505091803 12 340 3.2 11.3 0.00 0.00 0.00 69 1017.4
20260505090903 12 335 4.8 11.3 0.00 0.00 0.00 70 1017.4
20260505090003 12 336 4.8 12.9 0.00 0.00 0.00 71 1017.4
20260505085403 12 335 4.8 12.9 0.00 0.00 0.00 72 1017.4
20260505084503 11 338 3.2 11.3 0.00 0.00 0.00 74 1017.4
20260505083603 11 338 6.4 14.5 0.00 0.00 0.00 74 1017.5
20260505082703 11 343 8.0 12.9 0.00 0.00 0.00 75 1017.5
20260505081803 11 349 6.4 12.9 0.00 0.00 0.00 77 1017.5
20260505080903 10 352 6.4 12.9 0.00 0.00 0.00 78 1017.4
20260505080003 10 343 6.4 12.9 0.00 0.00 0.00 79 1017.5
20260505075403 10 342 6.4 11.3 0.00 0.00 0.00 80 1017.4
20260505074503 10 339 8.0 16.1 0.00 0.00 0.00 81 1017.5
20260505073603 10 340 9.7 16.1 0.00 0.00 0.00 81 1017.4